Hourly Data Report for November 04, 2016

All times are specified in Local Standard Time (LST). Add 1 hour to adjust for Daylight Saving Time where and when it is observed.

KITCHENER/WATERLOO
ONTARIO

43°27'39.000" N
80°22'43.000" W
321.60 m
6144239
71368
YKF

Download Data

Hourly Data (November 2016)
Hourly Data Report for November 4, 2016
Temp Definition
°C
Dew Point Temp Definition
°C
Rel Hum Definition
%
Wind Dir Definition
10's deg

Wind Spd Definition
km/h
Visibility Definition
km
Stn Press Definition
kPa
Hmdx Definition


Wind Chill Definition


Weather Definition


TIME
00:00 Legend Double Dagger 5.8 4.5 91 33 8 16.1 98.49     LegendNANA
01:00 Legend Double Dagger 5.0 3.8 92 33 5 16.1 98.54     LegendNANA
02:00 Legend Double Dagger 3.3 2.4 94 36 4 16.1 98.58     LegendNANA
03:00 Legend Double Dagger 2.3 1.9 97 32 4 1.2 98.60     Rain,Fog
04:00 Legend Double Dagger 1.3 1.0 98 30 9 16.1 98.65     LegendNANA
05:00 Legend Double Dagger 0.7 0.4 98 31 9 16.1 98.70     LegendNANA
06:00 Legend Double Dagger 1.6 1.3 98 31 4 4.0 98.71     Fog
07:00 Legend Double Dagger 0.6 0.4 99 31 8 1.0 98.77     Fog
08:00 Legend Double Dagger 1.1 0.9 99 31 11 0.2 98.86     Fog
09:00 Legend Double Dagger 3.1 2.8 98 29 11 0.6 98.89     Fog
10:00 Legend Double Dagger 5.1 4.8 98   0 16.1 98.87     LegendNANA
11:00 Legend Double Dagger 7.9 4.1 77 32 15 16.1 98.91     LegendNANA
12:00 Legend Double Dagger 8.8 3.6 70 33 18 16.1 98.91     LegendNANA
13:00 Legend Double Dagger 9.3 3.5 67 30 15 16.1 98.77     LegendNANA
14:00 Legend Double Dagger 10.6 3.2 60 26 26 16.1 98.68     LegendNANA
15:00 Legend Double Dagger 9.4 2.2 61 28 21 16.1 98.67     LegendNANA
16:00 Legend Double Dagger 9.0 2.3 63 27 24 16.1 98.68     LegendNANA
17:00 Legend Double Dagger 7.7 2.3 69 28 26 16.1 98.67     LegendNANA
18:00 Legend Double Dagger 6.2 2.3 76 27 15 16.1 98.67     LegendNANA
19:00 Legend Double Dagger 4.8 2.1 83 25 11 16.1 98.66     LegendNANA
20:00 Legend Double Dagger 5.2 2.9 85 25 13 16.1 98.62     LegendNANA
21:00 Legend Double Dagger 5.6 3.0 84 25 17 16.1 98.61     LegendNANA
22:00 Legend Double Dagger 5.3 2.7 83 25 15 16.1 98.58     LegendNANA
23:00 Legend Double Dagger 6.1 2.9 80 25 13 16.1 98.54     LegendNANA

Notes on Data Quality.

Legend

  • E = Estimated
  • M = Missing
  • NA = Not Available
  • ‡ = Partner data that is not subject to review by the National Climate Archives
Date modified: